Lid_Strength_Index
6 7 7 6 6 6 6 5 5 5 5 5 5 4 3 3 3 4 7 7 8 10 10 8 9 11 11 12 13 12 11 13 16 14 17 17 16 13 13 12 12 14 16 19 17 17 18 7 8 12 9 8 8 8
6 6 6 6 6 6 6 6 6 6 5 5 5 4 3 3 3 3 7 6 5 8 11 7 7 7 7 7 9 8 9 10 12 16 15 13 14 13 12 16 9 15 12 14 13 14 9 7 8 6 6 7 8 8
7 6 6 6 6 6 6 6 6 6 5 5 5 4 4 4 3 4 8 8 8 9 10 11 11 8 6 6 6 11 9 8 8 7 10 11 14 13 15 13 12 9 8 12 12 10 8 8 6 6 5 6 6 5
6 6 7 7 6 6 6 6 6 5 5 5 5 4 4 4 3 3 9 8 7 8 12 13 7 9 6 5 6 6 7 7 7 6 9 11 12 9 12 11 11 10 9 10 12 9 7 7 6 6 5 5 6 5
6 6 6 7 7 7 6 6 6 6 6 5 5 5 4 3 3 4 7 8 6 9 15 13 9 8 7 7 7 6 6 7 8 9 9 11 9 10 11 11 12 9 10 12 13 8 8 8 6 5 6 7 6 6
7 7 7 6 6 6 6 6 6 6 6 5 5 4 3 4 4 8 14 5 5 8 13 16 10 9 7 7 7 8 7 7 7 8 9 8 7 8 12 14 9 7 6 6 9 6 6 6 6 6 7 7 6 7
8 8 8 8 7 7 6 6 6 5 6 5 5 4 4 4 6 12 13 7 4 5 10 13 14 9 5 6 7 9 7 6 6 7 8 10 9 8 10 13 8 7 7 7 6 5 7 7 8 6 6 6 6 7
8 8 8 8 8 7 7 6 5 5 5 5 5 4 4 3 4 7 6 4 4 7 8 13 14 12 7 12 12 8 9 7 7 8 8 10 11 10 12 9 8 7 6 6 6 7 7 7 7 7 7 7 8 8
8 8 8 8 8 7 7 6 6 5 5 5 5 4 6 8 9 10 4 3 5 8 13 12 16 19 8 10 10 7 7 10 9 10 11 10 11 12 9 8 8 7 7 8 7 7 7 8 8 8 8 8 9 9
8 8 8 8 7 7 6 6 6 5 5 5 7 9 10 8 4 3 5 8 8 7 8 12 12 14 11 10 13 11 8 11 12 11 11 11 11 8 7 7 7 7 7 8 9 10 10 10 10 9 9 9 9 9
7 8 8 8 7 7 6 6 6 5 5 9 10 11 7 4 7 9 11 10 11 12 10 10 11 13 10 12 14 12 14 12 14 12 12 13 13 9 8 7 7 8 7 8 8 9 9 9 9 9 9 9 10 10
7 7 7 7 7 7 7 6 6 7 8 7 7 7 8 9 14 15 16 12 11 12 11 12 11 10 10 7 10 11 12 12 14 11 14 15 10 8 8 8 8 7 8 8 8 8 8 8 8 9 10 10 10 10
6 7 7 7 6 6 6 6 6 6 5 7 9 12 13 14 17 15 21 14 15 11 10 8 10 8 7 6 9 10 12 13 10 19 16 13 11 9 9 8 8 8 7 8 8 8 8 8 8 9 10 10 10 10
6 6 6 6 6 6 6 5 5 6 7 11 12 16 15 17 14 13 13 14 10 9 9 8 11 9 8 9 10 13 11 12 17 20 15 11 10 10 8 8 8 8 8 8 8 8 8 8 9 9 10 10 10 10
6 5 6 6 6 6 5 5 4 6 10 12 12 18 15 11 11 11 10 9 7 7 9 10 11 10 10 11 10 11 14 16 14 17 14 11 10 9 9 8 8 8 8 8 8 8 9 9 9 10 9 9 10 10
5 5 6 6 6 5 5 5 5 6 10 12 12 14 12 13 15 14 13 12 9 9 11 11 11 12 12 11 12 14 13 17 15 11 12 10 10 9 8 8 8 8 8 8 8 8 8 9 9 10 12 12 10 10
5 6 5 5 5 5 5 6 7 9 11 12 15 11 12 13 14 13 12 11 8 11 14 9 12 13 11 13 12 13 17 15 10 10 9 9 9 8 8 9 8 8 8 8 8 7 8 8 10 10 11 10 10 11
6 5 4 4 5 6 6 7 9 10 12 11 15 13 11 11 13 12 10 9 10 10 10 11 8 11 15 13 13 12 10 10 10 10 11 10 9 9 10 10 8 7 7 7 7 7 8 8 9 10 10 10 10 12
4 5 3 3 5 9 11 10 9 13 12 11 11 10 10 11 10 9 9 8 8 6 6 8 10 12 13 11 12 12 12 11 12 12 11 9 9 11 11 10 9 8 7 7 7 7 7 8 9 9 9 9 11 12
3 3 3 4 5 12 12 11 8 10 12 12 10 10 10 11 9 11 9 8 8 7 9 10 10 13 13 12 12 11 12 11 13 15 16 14 14 12 11 11 10 8 8 7 8 8 8 12 12 8 9 9 11 11
3 5 4 5 7 8 10 11 11 10 10 11 10 10 11 11 11 12 10 8 10 8 9 9 14 13 12 13 11 10 11 12 13 13 14 16 15 13 13 11 10 10 11 13 12 12 10 11 10 8 9 9 9 10
6 3 6 6 8 8 10 10 11 9 11 10 10 9 11 14 14 10 7 8 8 10 11 11 12 12 12 12 13 12 12 11 12 11 12 14 17 15 14 12 13 16 15 15 13 13 12 11 10 8 8 9 9 9
3 4 7 7 10 11 14 8 11 10 14 13 9 11 12 13 9 7 9 8 9 13 11 11 11 11 12 12 11 11 13 13 14 15 16 17 15 14 13 13 14 17 17 15 13 13 14 13 12 12 9 8 9 9
3 7 11 12 11 19 10 14 9 9 9 11 11 14 12 13 9 12 14 15 15 11 11 11 11 13 14 13 15 16 16 15 15 16 18 17 18 17 14 14 15 16 16 15 15 15 15 15 14 13 12 10 9 10
11 13 14 18 12 17 18 17 12 12 15 14 12 11 13 9 13 13 15 17 15 12 13 12 13 13 16 17 14 15 19 17 16 20 21 20 20 19 19 17 16 18 16 18 18 18 17 15 15 14 14 13 11 9
14 14 14 17 19 17 17 19 17 17 13 17 15 12 11 14 16 17 15 16 15 15 18 16 17 14 13 12 14 17 18 17 15 20 22 22 22 24 25 25 24 22 18 20 18 18 18 17 16 15 15 14 13 11
17 20 10 8 9 9 14 13 10 12 13 17 17 14 13 13 14 14 12 12 13 16 15 15 13 13 14 14 15 17 18 17 17 18 19 21 21 23 23 26 25 22 20 20 21 20 19 18 17 16 16 15 14 12
13 11 16 13 14 9 15 13 11 11 11 8 10 13 17 17 18 15 15 14 16 13 13 12 12 13 15 16 18 19 19 20 19 15 16 17 19 24 25 25 24 19 22 23 23 22 19 18 17 17 16 15 13 12
14 11 12 19 17 13 15 14 13 10 8 11 15 16 14 12 13 15 14 15 16 14 15 16 18 16 17 18 19 20 23 24 22 27 26 26 28 25 25 27 26 24 24 23 21 18 16 17 17 16 15 14 12 11
15 8 12 17 16 16 14 9 11 10 10 11 12 13 15 17 16 17 16 15 16 16 16 15 16 18 21 21 25 23 25 29 29 26 28 30 27 27 31 28 26 25 25 25 23 20 19 21 19 20 18 16 15 15
8 9 13 12 12 11 9 11 13 13 17 17 20 19 20 20 15 15 16 18 14 14 15 17 18 19 18 22 26 28 28 29 31 29 28 30 32 33 32 30 30 29 27 25 22 25 26 26 24 23 22 20 18 16
14 13 13 16 18 12 11 14 20 20 21 20 21 23 22 23 23 19 15 15 14 15 16 17 19 22 24 25 27 28 26 27 31 31 30 32 32 33 31 30 30 30 28 26 27 27 27 28 28 26 24 22 20 18
10 12 12 13 15 18 18 17 17 18 22 22 23 23 23 21 23 18 15 14 14 14 16 19 19 20 21 22 24 27 28 29 29 23 26 26 28 28 31 32 32 29 27 28 28 28 28 29 30 28 26 25 22 19